Location: Albuquerque Trailhead
(34.7934°N, 106.3736°W)
Time: 00:26:18
(UTC+00:00)

SL-19 R/B - Pass Details

Date: 20 June 2021
Orbit: 796 x 1009 km, 99.4° (Epoch: 01 August)

Event Time Altitude Azimuth Distance (km) Brightness Sun altitude
Rises 09:20:34 0° 8° (N) 3,331 8.4 -23.7°
Reaches altitude 10° 09:22:54 10° 5° (N) 2,412 7.4 -23.5°
Maximum altitude 09:28:06 58° 287° (WNW) 973 4.3 -22.9°
Enters shadow 09:29:14 48° 242° (WSW) 1,091 4.4 -22.7°
